Regional Weather Roundup
Issued by NWS Sioux Falls, SD

Home | Current Version | Previous Version | Graphics & Text | Print | Product List | Glossary On
Versions: 1 2 3 4 5 6 7 8 9 10 11 12 13 14 15 16 17 18 19 20 21 22 23 24 25 26 27 28 29 30 31 32 33 34 35 36 37 38 39 40 41 42 43 44 45 46 47 48 49 50
000
ASUS43 KFSD 300910
RWRFSD

WEATHER ROUNDUP FOR SE SOUTH DAKOTA/SW MINNESOTA/NW IOWA
NATIONAL WEATHER SERVICE SIOUX FALLS SD
300 AM CST FRI JAN 30 2015

NOTE: "FAIR" INDICATES FEW OR NO CLOUDS BELOW 12,000 FEET WITH NO
SIGNIFICANT WEATHER AND OR OBSTRUCTIONS TO VISIBILITY.


SDZ038>040-050-052>070-301000-
SOUTHEAST SOUTH DAKOTA

CITY           SKY/WX    TMP DP  RH WIND       PRES   REMARKS
CHAMBERLAIN    CLEAR     19  17  91 SE8       30.43F WCI   9
HURON          CLEAR     18  15  88 S7        30.48F WCI   9
MADISON        CLOUDY    18  18 100 SE6       30.47F WCI   9
MITCHELL       CLEAR     19  16  88 S6        30.50F WCI  11
SIOUX FALLS    CLOUDY    22  16  78 SE5       30.50S WCI  16
WINNER         FAIR      24  20  84 SE12      30.41F WCI  13
YANKTON        CLEAR     18  12  79 CALM      30.54S
$$

MNZ071-072-080-081-089-090-097-098-301000-
SOUTHWEST MINNESOTA

CITY           SKY/WX    TMP DP  RH WIND       PRES   REMARKS
FAIRMONT       CLEAR     12   7  79 N7        30.52S WCI   2
JACKSON        CLEAR     14  12  92 CALM      30.51F
LUVERNE        CLOUDY    21  18  86 E5        30.51S WCI  15
MARSHALL       CLOUDY    16   9  73 NE5       30.53F WCI   9
MONTEVIDEO     CLEAR     10   7  85 CALM      30.54
PIPESTONE      CLOUDY    18  16  93 CALM      30.48S
REDWOOD FALLS  FAIR      13   8  81 CALM      30.54F
TRACY          MOCLDY    15  13  89 CALM      30.52S
WINDOM         CLEAR     12  10  92 CALM      30.51F
WORTHINGTON    CLOUDY    16  12  86 NE7       30.50F WCI   6
$$

IAZ001>003-012>014-020>022-031-032-NEZ013-014-SDZ071-301000-
NORTHWEST IOWA

CITY           SKY/WX    TMP DP  RH WIND       PRES   REMARKS
CHEROKEE       CLEAR     18  16  93 NE3       30.53S
DENISON        CLEAR     19  16  86 NE5       30.52R WCI  13
ESTHERVILLE    CLEAR     13  11  92 N7        30.52R WCI   3
LE MARS        CLEAR     23  19  86 NE3       30.53S
ORANGE CITY    PTCLDY    23  19  86 CALM      30.51S
SHELDON        CLOUDY    19  18  93 NE6       30.50F WCI  11
SIOUX CITY     PTCLDY    17  14  88 W3        30.55R
SPENCER        NOT AVBL
STORM LAKE     CLEAR     18  14  86 NE8       30.52S WCI   7
$$

ABBREVIATIONS USED IN REMARKS
   TC - TEMPERATURE IN CELSIUS
  WCI - WIND CHILL INDEX
   HX - HEAT INDEX
  VSB - VISIBILITY



USA.gov is the U.S. government's official web portal to all federal, state and local government web resources and services.